Change the Weather History Date:

Tuesday, February 18, 2014

  Actual Average Record
Temperature  
Mean Temperature 8 °F -  
Max Temperature 24 °F 31 °F 53 °F (2011)
Min Temperature -7 °F 13 °F -11 °F (2000)
Degree Days  
Heating Degree Days 57    
Moisture  
Dew Point 4 °F    
Average Humidity 79    
Maximum Humidity 100    
Minimum Humidity 49    
Precipitation  
Precipitation 0.07 in - - ()
Sea Level Pressure  
Sea Level Pressure 30.16 in    
Wind  
Wind Speed 3 mph (North)    
Max Wind Speed 15 mph    
Max Gust Speed -    
Visibility 7 miles    
Events      
Averages and records for this station are not official NWS values.
T = Trace of Precipitation, MM = Missing Value Source: NWS Daily Summary

Daily Weather History Graph

Daily Weather History Graph

Search for Another Location

Airport or City:

Trip Planner

Search our weather history database for the weather conditions in past years. The results will help you decide how hot, cold, wet, or windy it might be!

Date:

Astronomy

Feb. 18, 2014 Rise Set
Actual Time 6:35 AM EST 5:14 PM EST
Civil Twilight 6:06 AM EST 5:44 PM EST
Nautical Twilight 5:32 AM EST 6:18 PM EST
Astronomical Twilight 4:59 AM EST 6:51 PM EST
Moon 9:14 PM EST (2/18) 7:57 AM EST (2/18)
Length of Visible Light 11h 37m
Length of Day
10h 38m
Waning Gibbous, 87% of the Moon is Illuminated
Feb 18
Waning Gibbous
Feb 22
Last Quarter
Mar 1
New
Mar 8
First Quarter
Mar 16
Full

Hourly Weather History & Observations

Time (EST) Temp. Windchill Dew Point Humidity Pressure Visibility Wind Dir Wind Speed Gust Speed Precip Events Conditions
12:15 AM 1.4 °F - -7.6 °F 66% 30.30 in 10.0 mi Calm Calm - N/A   Clear
12:35 AM -0.4 °F - -9.4 °F 66% 30.30 in 10.0 mi Calm Calm - N/A   Clear
12:55 AM -0.4 °F - -7.6 °F 72% 30.30 in 10.0 mi Calm Calm - N/A   Clear
1:15 AM -0.4 °F - -9.4 °F 66% 30.31 in 10.0 mi Calm Calm - N/A   Clear
1:35 AM -0.4 °F - -9.4 °F 66% 30.31 in 10.0 mi Calm Calm - N/A   Clear
1:55 AM -4.0 °F - -13.0 °F 65% 30.31 in 10.0 mi Calm Calm - N/A   Clear
2:15 AM -0.4 °F - -2.2 °F 92% 30.32 in 10.0 mi Calm Calm - N/A   Clear
2:35 AM -0.4 °F - -13.0 °F 55% 30.31 in 10.0 mi Calm Calm - N/A   Clear
2:55 AM -5.8 °F - -13.0 °F 71% 30.32 in 10.0 mi Calm Calm - N/A   Clear
3:15 AM -4.0 °F - -9.4 °F 78% 30.32 in 10.0 mi Calm Calm - N/A   Clear
3:35 AM -5.8 °F - -11.2 °F 77% 30.32 in 10.0 mi Calm Calm - N/A   Clear
3:55 AM -5.8 °F - -9.4 °F 84% 30.31 in 10.0 mi Calm Calm - N/A   Clear
4:15 AM -5.8 °F - -9.4 °F 84% 30.32 in 10.0 mi Calm Calm - N/A   Clear
4:35 AM -5.8 °F - -7.6 °F 92% 30.33 in 10.0 mi Calm Calm - N/A   Clear
4:55 AM -7.6 °F - -16.6 °F 65% 30.34 in 10.0 mi Calm Calm - N/A   Clear
5:15 AM -5.8 °F - -7.6 °F 92% 30.34 in 10.0 mi Calm Calm - N/A   Clear
5:35 AM -7.6 °F - -11.2 °F 84% 30.33 in 10.0 mi Calm Calm - N/A   Clear
5:55 AM -5.8 °F - -9.4 °F 84% 30.31 in 10.0 mi Calm Calm - N/A   Clear
6:15 AM -5.8 °F - -11.2 °F 77% 30.30 in 10.0 mi Calm Calm - N/A   Clear
6:35 AM -5.8 °F - -9.4 °F 84% 30.31 in 10.0 mi Calm Calm - N/A   Clear
6:55 AM -5.8 °F - -9.4 °F 84% 30.32 in 10.0 mi Calm Calm - N/A   Clear
7:15 AM -4.0 °F -14.6 °F -9.4 °F 78% 30.32 in 10.0 mi NNE 4.6 mph - N/A   Clear
7:35 AM -2.2 °F - -9.4 °F 71% 30.33 in 10.0 mi Calm Calm - N/A   Clear
7:55 AM -2.2 °F -10.4 °F -5.8 °F 85% 30.33 in 1.0 mi NNE 3.5 mph - N/A   Clear
8:15 AM -0.4 °F -8.3 °F -7.6 °F 72% 30.32 in 0.5 mi NNE 3.5 mph - N/A   Unknown
8:35 AM -0.4 °F - -7.6 °F 72% 30.31 in 5.0 mi Calm Calm - N/A   Clear
8:55 AM 1.4 °F -6.2 °F -0.4 °F 92% 30.31 in 6.0 mi North 3.5 mph - N/A   Partly Cloudy
9:15 AM 3.2 °F - -7.6 °F 61% 30.29 in 10.0 mi Calm Calm - 0.03 in   Mostly Cloudy
9:35 AM 5.0 °F -2.1 °F -2.2 °F 72% 30.29 in 10.0 mi NNW 3.5 mph - 0.04 in   Overcast
9:55 AM 6.8 °F - -5.8 °F 56% 30.28 in 10.0 mi Calm Calm - 0.05 in   Overcast
10:15 AM 8.6 °F 0.1 °F -4.0 °F 57% 30.26 in 10.0 mi NNE 4.6 mph - 0.01 in   Overcast
10:35 AM 10.4 °F - -2.2 °F 57% 30.22 in 10.0 mi Calm Calm - 0.01 in   Overcast
10:55 AM 12.2 °F 2.9 °F -0.4 °F 57% 30.22 in 10.0 mi NNE 5.8 mph - 0.01 in   Mostly Cloudy
11:15 AM 14.0 °F - 3.2 °F 62% 30.24 in 10.0 mi Calm Calm - N/A   Mostly Cloudy
11:35 AM 15.8 °F - -0.4 °F 49% 30.22 in 10.0 mi Calm Calm - N/A   Overcast
11:55 AM 15.8 °F 7.2 °F 5.0 °F 62% 30.21 in 10.0 mi NNW 5.8 mph - N/A   Overcast
12:15 PM 17.6 °F 7.3 °F 3.2 °F 53% 30.19 in 10.0 mi North 8.1 mph - N/A   Overcast
12:35 PM 17.6 °F 7.3 °F 3.2 °F 53% 30.17 in 10.0 mi North 8.1 mph - N/A   Overcast
12:55 PM 17.6 °F 8.2 °F 6.8 °F 63% 30.16 in 10.0 mi North 6.9 mph - N/A   Overcast
1:15 PM 19.4 °F 10.4 °F 19.4 °F 100% 30.14 in 10.0 mi NNE 6.9 mph - N/A   Overcast
1:35 PM 19.4 °F 11.5 °F 6.8 °F 58% 30.14 in 10.0 mi North 5.8 mph - N/A   Overcast
1:55 PM 19.4 °F 10.4 °F 6.8 °F 58% 30.14 in 4.0 mi NNW 6.9 mph - N/A   Overcast
2:15 PM 19.4 °F 10.4 °F 10.4 °F 68% 30.13 in 1.5 mi North 6.9 mph - N/A   Overcast
2:35 PM 19.4 °F 9.5 °F 14.0 °F 80% 30.12 in 2.0 mi North 8.1 mph - N/A   Overcast
2:55 PM 19.4 °F 10.4 °F 14.0 °F 80% 30.11 in 2.0 mi North 6.9 mph - N/A   Overcast
3:15 PM 19.4 °F 10.4 °F 15.8 °F 86% 30.09 in 1.5 mi North 6.9 mph - N/A   Overcast
3:35 PM 19.4 °F 9.5 °F 15.8 °F 86% 30.08 in 1.2 mi North 8.1 mph - N/A   Overcast
3:55 PM 19.4 °F 8.6 °F 17.6 °F 93% 30.07 in 1.5 mi North 9.2 mph - N/A   Overcast
4:15 PM 19.4 °F 8.6 °F 15.8 °F 86% 30.06 in 0.8 mi North 9.2 mph - N/A   Overcast
4:35 PM 19.4 °F 7.9 °F 17.6 °F 93% 30.05 in 0.5 mi NNE 10.4 mph - 0.01 in   Overcast
4:55 PM 19.4 °F 10.4 °F 17.6 °F 93% 30.04 in 0.8 mi North 6.9 mph - 0.01 in   Overcast
5:15 PM 19.4 °F 7.2 °F 17.6 °F 93% 30.03 in 1.5 mi NNE 11.5 mph - N/A   Overcast
5:35 PM 19.4 °F 7.2 °F 17.6 °F 93% 30.02 in 1.8 mi NNE 11.5 mph - N/A   Overcast
5:55 PM 19.4 °F 7.2 °F 15.8 °F 86% 30.01 in 0.8 mi NNE 11.5 mph - N/A   Overcast
6:15 PM 19.4 °F 5.5 °F 17.6 °F 93% 30.01 in 0.8 mi NNE 15.0 mph - N/A   Overcast
6:35 PM 19.4 °F 6.6 °F 15.8 °F 86% 30.00 in 0.8 mi North 12.7 mph - N/A   Overcast
6:55 PM 19.4 °F 6.6 °F 17.6 °F 93% 30.00 in 0.8 mi North 12.7 mph - N/A   Overcast
7:15 PM 19.4 °F 6.6 °F 17.6 °F 93% 29.99 in 1.0 mi North 12.7 mph - N/A   Overcast
7:35 PM 19.4 °F 7.2 °F 17.6 °F 93% 29.98 in 1.5 mi North 11.5 mph - N/A   Overcast
7:55 PM 19.4 °F 6.6 °F 17.6 °F 93% 29.97 in 1.0 mi North 12.7 mph - N/A   Overcast
8:15 PM 19.4 °F 6.6 °F 17.6 °F 93% 29.96 in 2.5 mi North 12.7 mph - N/A   Overcast
8:35 PM 19.4 °F 5.5 °F 17.6 °F 93% 29.95 in 1.2 mi North 15.0 mph - N/A   Overcast
8:55 PM 19.4 °F 6.0 °F 17.6 °F 93% 29.95 in 1.8 mi North 13.8 mph - N/A   Overcast
9:15 PM 21.2 °F 8.9 °F 17.6 °F 86% 29.94 in 2.0 mi North 12.7 mph - N/A   Overcast
9:35 PM 21.2 °F 8.3 °F 17.6 °F 86% 29.93 in 2.5 mi North 13.8 mph - N/A   Overcast
9:55 PM 21.2 °F 10.1 °F 19.4 °F 93% 29.92 in 4.0 mi North 10.4 mph - N/A   Overcast
10:15 PM 21.2 °F 9.5 °F 19.4 °F 93% 29.94 in 8.0 mi North 11.5 mph - N/A   Overcast
10:35 PM 21.2 °F 10.1 °F 19.4 °F 93% 29.93 in 10.0 mi North 10.4 mph - N/A   Overcast
10:55 PM 21.2 °F 10.1 °F 19.4 °F 93% 29.92 in 10.0 mi North 10.4 mph - N/A   Overcast
11:15 PM 23.0 °F 14.7 °F 19.4 °F 86% 29.93 in 10.0 mi NNW 6.9 mph - N/A   Overcast
11:35 PM 23.0 °F 14.7 °F 19.4 °F 86% 29.95 in 10.0 mi NNW 6.9 mph - N/A   Overcast
11:55 PM 24.8 °F 16.1 °F 19.4 °F 80% 29.96 in 10.0 mi NNW 8.1 mph - N/A   Overcast